Location: Hyderabad
(17.3833°N, 78.4667°E)
Time: 21:24:16
(UTC+05:30)

Daily predictions for brighter satellites

Satellite Brightness Start Highest point End
(mag) Time Altitude Azimuth Time Altitude Azimuth Time Altitude Azimuth
Cosmos 158 Rocket 4.0 19:13:11 10° S 19:18:30 65° ESE 19:23:43 10° NNE
GENESIS II 4.1 19:14:48 10° SSW 19:18:36 63° ESE 19:22:25 10° NNE
Centaur D-1AR AC-41 2.7 19:14:58 10° WNW 19:19:48 82° NNE 19:23:38 10° E
ASTRO E2 2.7 19:18:57 10° WNW 19:22:54 75° SSW 19:26:52 10° SE
Cosmos 1378 3.2 19:20:10 10° S 19:23:48 54° E 19:27:25 10° NNE
FengYun 1-2 T 4.3 19:19:58 10° SSE 19:25:33 86° ENE 19:31:04 10° N
ATLAS 2AS CENTAUR R/B 3.1 19:18:57 10° S 19:25:55 49° ESE 19:33:26 10° NE
Cosmos 1844 Rocket 3.7 19:24:08 10° SSE 19:28:32 23° ESE 19:32:55 10° NE
Resurs 01 Rocket 3.6 19:28:47 10° E 19:30:17 12° ENE 19:31:47 10° NE
Cosmos 2228 3.0 19:27:59 10° N 19:32:23 82° E 19:36:46 10° S
OAO 2 Rocket 3.9 19:28:49 10° WNW 19:33:58 56° SW 19:38:49 12° SE
SPOT 3 Rocket 3.7 19:29:40 10° S 19:34:50 80° WSW 19:40:02 10° NNW
Aurora 2 Rocket 3.7 19:30:10 10° W 19:34:55 58° NNW 19:41:50 10° ENE
Cosmos 1707 2.9 19:32:24 10° SSE 19:36:08 48° E 19:39:50 10° NNE
Cosmos 1371 Rocket 4.1 19:32:00 10° N 19:37:04 56° ENE 19:42:07 10° SSE
Cosmos 1939 Rocket 4.3 19:34:44 13° ESE 19:37:21 22° ENE 19:40:32 10° NNE
Cosmos 468 4.5 19:32:52 10° S 19:38:07 69° ESE 19:43:25 10° NNE
ASC 2 Rocket 4.1 19:29:42 10° WSW 19:38:11 69° SSE 19:43:44 10° ENE
Cosmos 2058 Rocket 3.0 19:34:42 10° N 19:39:05 87° E 19:43:26 10° S
Aureole 1 Rocket 2.0 19:42:18 10° S 19:45:12 61° ESE 19:48:16 10° NNE
SL-16 R/B 4.0 19:43:14 10° NW 19:48:06 30° WSW 19:52:57 10° SSW
Intercosmos 25 3.5 19:46:32 10° SSW 19:49:43 56° W 19:52:58 10° N
Cosmos 2056 Rocket 3.6 19:45:08 10° N 19:50:16 59° ENE 19:54:41 14° SSE
NATO 3D Rocket 4.2 19:45:00 10° W 19:50:48 43° SSW 19:54:03 19° SE
ERS-2 4.2 19:53:08 13° ENE 19:53:10 13° ENE 19:54:50 10° NE
Cosmos 1758 3.2 19:49:35 10° N 19:53:38 71° E 19:57:13 13° S
Cosmos 1624 Rocket 4.0 19:49:21 10° N 19:54:38 72° ENE 19:59:09 14° SSE
Centaur Rocket 4.1 19:51:07 10° W 19:54:59 63° S 20:03:02 18° ESE
Cosmos 1315 Rocket 3.5 19:55:32 22° SE 19:57:21 32° E 20:00:59 10° NNE
GPS 2-14 Rocket1 4.4 19:59:50 10° SSW 20:01:27 15° S 20:01:27 15° S
Hubble Space Telescope 1.2 19:59:13 10° WNW 20:03:15 54° NNE 20:05:20 26° E
Cosmos 1269 Rocket 4.0 20:01:36 10° S 20:06:50 65° ESE 20:12:05 10° NNE
Meteor 2-5 Rocket 3.8 20:03:31 10° S 20:09:22 66° E 20:15:15 10° NNE
Cosmos 1953 2.2 20:07:20 10° N 20:11:20 86° E 20:13:40 24° S
USA 186 1.7 20:11:31 35° SSE 20:12:48 89° E 20:16:01 10° N
SJ-6B 3.5 20:10:28 13° S 20:13:46 51° W 20:17:35 10° NNW
In-Cosmos 22 4.2 20:11:40 18° SSE 20:15:33 53° E 20:20:57 10° NNE
GPS 2-15 Rocket1 4.1 20:13:00 10° W 20:17:15 32° SSW 20:18:30 28° S
SWIFT 3.6 20:16:46 10° WSW 20:20:21 27° SSW 20:21:00 25° S
Palapa 6 Rocket 4.3 20:15:55 10° WNW 20:20:38 47° N 20:24:47 18° ENE
GPS 2-18 Rocket1 3.7 20:17:46 10° WNW 20:21:22 47° N 20:22:37 32° NE
Cosmos 1603 4.3 20:18:29 10° NNW 20:24:03 54° WSW 20:28:26 16° S
SEDSat Delta rocket 4.4 20:21:35 10° W 20:27:05 46° NNW 20:31:53 10° NE
Iridium 4 Rocket 3.7 20:25:47 29° SSE 20:28:44 64° E 20:34:12 10° N
YAOGAN 6 3.6 20:27:20 24° SSW 20:29:01 41° W 20:32:22 10° NNW
Meteor 1-16 Rocket 4.4 20:27:42 10° N 20:33:15 55° E 20:34:35 45° SE
Resurs 1-3 3.6 20:38:20 50° S 20:39:24 75° WSW 20:43:47 10° NNW
PSLV R/B 4.5 20:36:39 10° WSW 20:39:34 37° NW 20:39:44 36° NNW
Cosmos 1470 4.1 20:36:20 10° NNW 20:39:57 37° W 20:41:44 24° SW
Cosmos 1953 Rocket 3.9 20:49:27 47° SW 20:50:23 60° W 20:54:41 10° N
Cosmos 2278 Rocket 3.4 20:56:48 27° NE 20:56:48 27° NE 20:59:34 10° NNE
ARGOS 3.8 20:57:13 42° NE 20:57:13 42° NE 21:01:37 10° N
Cosmos 1943 4.2 20:58:56 10° NW 21:04:08 40° WSW 21:05:55 31° SW
Resurs 01 Rocket 2.9 21:05:48 33° WSW 21:06:22 34° W 21:10:23 10° NW
Spot 2 Rocket 4.0 21:11:11 51° WSW 21:11:28 52° WSW 21:16:22 10° NNW
S3M 4.2 21:17:45 58° NE 21:17:45 58° NE 21:23:01 10° N
Centaur D-1AR AC-36 2.4 21:07:02 10° WNW 21:19:58 73° N 21:19:58 73° N
Cosmos 1553 Rocket 4.4 21:40:14 57° WNW 21:40:14 57° WNW 21:45:40 10° N
H-2A R/B 3.3 21:45:00 38° NNW 21:45:00 38° NNW 21:48:18 10° NNW
USA 215 3.5 21:44:45 64° N 21:44:45 64° N 21:50:21 10° NNW
CZ-3C R/B 2.9 21:37:55 10° W 21:45:49 37° W 21:45:49 37° W
ATLAS 3B R/B 4.4 22:44:03 10° NNW 22:46:37 26° NNW 22:46:37 26° NNW
ATLAS 3B CENTAUR R/B 4.3 23:07:39 10° W 23:19:28 40° NW 23:19:28 40° NW
